Location: Chabrignac
(45.3160°N, 1.3404°E)
Time: 15:11:51
(UTC+00:00)

Daily predictions for brighter satellites

Satellite Brightness Start Highest point End
(mag) Time Altitude Azimuth Time Altitude Azimuth Time Altitude Azimuth
Cosmos 1743 Rocket 3.5 16:41:55 10° N 16:46:15 73° E 16:50:34 10° SSE
Cosmos 1763 Rocket 3.5 16:41:49 10° SSW 16:46:53 86° WNW 16:52:03 10° NNE
ARGOS 4.5 16:44:17 10° E 16:47:50 18° ENE 16:51:24 10° NNE
Meteor 1-25 Rocket 4.2 16:42:20 10° N 16:47:53 66° ENE 16:53:29 10° SSE
Cosmos 1634 Rocket 4.4 16:42:17 10° SSE 16:48:12 43° E 16:54:07 10° NNE
Cosmos 2278 4.3 16:44:11 10° NNW 16:49:23 34° NE 16:54:32 10° ESE
Cosmos 2026 Rocket 4.1 16:44:47 10° N 16:50:44 50° ENE 16:56:35 10° SSE
Cosmos 1602 3.9 16:47:26 10° N 16:51:13 50° ENE 16:54:59 10° SSE
Cosmos 44 Rocket 4.4 16:49:40 10° NNW 16:53:44 25° NE 16:57:43 10° E
Cosmos 1833 Rocket 2.8 16:48:09 10° SSW 16:53:47 89° WNW 16:59:28 10° NNE
SJ 16-02 4.4 16:51:46 10° NW 16:54:34 17° W 16:57:21 10° SW
Cosmos 841 Rocket 3.7 16:50:19 10° S 16:55:16 50° ESE 17:00:15 10° NNE
CZ-2C R/B 2.9 16:50:56 10° SSE 16:55:50 88° W 17:00:36 10° NNW
SeaSat 1 4.3 16:52:19 10° N 16:56:17 25° NW 17:00:13 10° W
USA 229 DEB 4.2 16:49:33 10° NW 16:56:56 78° SW 17:04:45 10° SSE
USA 229 4.2 16:49:39 10° NW 16:57:01 78° SW 17:04:50 10° SSE
Cosmos 1666 Rocket 4.5 16:53:38 10° NNE 16:57:26 27° ENE 17:01:12 10° SE
Okean O Rocket 3.1 16:54:59 10° E 16:57:47 17° ENE 17:00:35 10° NNE
USA 306 4.2 16:56:46 10° NW 17:00:20 25° N 17:03:36 11° ENE
H-2A R/B 2.6 16:56:34 10° SE 17:01:08 33° ENE 17:05:36 10° N
Cosmos 1939 Rocket 2.9 16:58:12 10° SSE 17:02:15 65° ENE 17:06:18 10° N
Cosmos 1937 Rocket 3.5 16:57:05 10° NNW 17:02:27 81° ENE 17:07:45 10° SSE
Cosmos 1809 Rocket 4.4 16:56:47 10° N 17:02:52 68° E 17:08:54 10° SSE
COSMOS 2406 3.3 16:57:11 10° SSW 17:02:56 84° ESE 17:08:42 10° NNE
ISS -3.8 17:00:46 10° WNW 17:04:10 71° NNE 17:07:33 10° ESE
Cosmos 372 Rocket 4.0 17:02:03 10° NNW 17:07:15 58° ENE 17:12:25 10° SE
CZ-2C R/B 3.6 17:04:31 10° NE 17:08:42 24° E 17:12:52 10° SSE
Cosmos 1500 3.2 17:07:25 10° N 17:11:06 54° ENE 17:14:46 10° SSE
USA 234 3.3 17:06:58 10° ESE 17:13:26 67° NNE 17:19:55 10° NW
Cosmos 1500 Rocket 4.5 17:09:37 10° NNW 17:13:56 53° W 17:18:12 10° S
Cosmos 1782 2.7 17:11:50 10° S 17:15:47 70° E 17:19:45 10° NNE
CZ-2D R/B 3.5 17:14:04 10° SE 17:17:42 43° ENE 17:21:20 10° N
Sich 1 2.9 17:14:27 10° N 17:18:45 80° E 17:23:05 10° SSE
SL-08 R/B 4.4 17:15:35 10° N 17:20:02 43° WNW 17:24:24 10° SW
USA 307 4.1 17:16:27 10° NW 17:20:05 26° N 17:22:25 17° NE
CZ-4B R/B 3.6 17:15:12 10° SE 17:20:08 38° ENE 17:25:02 10° N
NOAA 6 4.1 17:17:59 10° SSE 17:23:08 87° WSW 17:28:18 10° NNW
NOSS 2-2 (D) 4.4 17:18:43 10° NW 17:24:01 89° NE 17:31:30 10° SE
ATLAS 5 CENTAUR R/B 3.1 17:17:35 10° NW 17:24:37 29° NNE 17:26:27 19° ENE
Cosmos 1805 Rocket 3.9 17:21:46 10° NNW 17:26:05 67° W 17:30:22 10° S
PAYLOAD B 4.3 17:20:45 10° SSE 17:26:15 61° ENE 17:31:47 10° N
SL-24 R/B - RUBIN 2 3.6 17:24:20 10° NW 17:28:51 80° SW 17:33:09 10° SSE
deb Chang Zheng 4 4.1 17:26:18 10° SE 17:30:13 36° ENE 17:34:11 10° N
Cosmos 540 Rocket 4.0 17:29:59 10° SW 17:35:00 57° WNW 17:40:04 10° NNE
Cosmos 2360 Rocket 3.6 17:33:12 10° N 17:37:02 18° NE 17:37:22 18° NE
Lacrosse 5 rocket 1.7 17:33:42 10° NW 17:37:25 41° NNE 17:39:14 26° E
Cosmos 1666 2.5 17:36:31 10° N 17:40:13 66° E 17:43:54 10° SSE
USA 308 4.0 17:39:07 10° NW 17:42:52 29° NNE 17:44:08 25° NE
Cosmos 1515 Rocket 4.4 17:40:09 10° SSE 17:43:59 29° E 17:44:48 28° ENE
Meteor 2-16 Rocket 4.4 17:43:41 10° N 17:49:50 82° E 17:55:59 10° S
COSMOS 2455 3.3 17:45:20 10° SW 17:51:16 61° NW 17:56:40 13° NNE
Meteor 1-10 Rocket 4.5 17:45:59 10° SSE 17:51:27 46° E 17:56:15 13° NNE
Meteor 1-11 Rocket 4.1 17:47:36 10° N 17:52:54 40° ENE 17:58:16 10° SE
PSLV R/B 4.2 17:49:29 10° S 17:53:07 61° W 17:56:51 10° NNW
Cosmos 1814 Rocket 4.0 17:51:07 10° SSW 17:56:21 80° WNW 18:00:57 13° NNE
Cosmos 921 Rocket 3.1 17:52:41 10° S 17:56:43 49° ESE 17:57:55 37° NE
Cosmos 1570 Rocket 4.0 17:52:12 10° SSW 17:57:27 89° WNW 18:01:47 15° NNE
Cosmos 2322 Rocket 2.7 17:53:37 10° NNW 17:58:52 36° NE 18:00:16 31° E
SL-08 RB Rocket 4.0 17:55:05 10° SE 17:59:28 44° ENE 18:03:51 10° N
Cosmos 2298 Rocket 4.0 17:57:06 10° NNW 18:02:23 58° ENE 18:07:38 10° SE
COSMO-SKYMED 1 2.4 17:59:54 20° NNE 18:02:54 72° ESE 18:07:13 10° S
Cosmos 1980 Rocket 3.1 17:58:00 10° NW 18:03:29 51° WSW 18:08:53 10° S
CZ-4C R/B 3.1 17:56:57 10° NW 18:04:17 81° SW 18:12:48 10° SSE
Cosmos 1812 3.6 18:02:13 10° SSW 18:05:58 50° WNW 18:09:44 10° N
Cosmos 1633 Rocket 3.3 18:03:21 10° NNW 18:07:43 69° W 18:12:05 10° S
Meteor 2-15 Rocket 4.5 18:02:33 10° SSE 18:08:29 55° E 18:14:07 11° NNE
USA 305 3.6 18:04:34 10° NW 18:08:32 36° NNE 18:08:38 36° NNE
Helios 1B 4.4 18:07:44 24° NNE 18:10:23 83° ESE 18:14:43 10° SSW
Feng Yun 1-1 Rocket 4.4 18:04:58 10° SE 18:10:43 55° ENE 18:16:25 10° N
CZ-4 R/B 4.3 18:08:29 10° SSE 18:12:36 80° ENE 18:16:46 10° N
Cosmos 1151 Rocket 3.8 18:08:45 10° SSW 18:12:59 53° WNW 18:17:16 10° N
Cosmos 2279 Rocket 4.2 18:07:24 10° SSW 18:13:36 70° W 18:19:48 10° N
CZ-2C R/B 3.3 18:10:49 10° SSW 18:13:36 17° S 18:14:25 16° SSE
Cosmos 1818 3.5 18:10:13 10° NW 18:15:44 89° WSW 18:20:30 14° SSE
Aureole 3 Rocket 4.0 18:13:45 10° SSE 18:16:26 34° SE 18:16:26 34° SE
SL-16 R/B 2.1 18:12:32 10° NNW 18:18:10 62° ENE 18:21:04 29° SE
Cosmos 2266 Rocket 3.9 18:12:11 10° N 18:18:35 73° E 18:25:00 10° SSE
Cosmos 2082 Rocket 3.2 18:14:50 10° SW 18:20:13 43° WNW 18:24:53 14° NNE
USA 267 3.8 18:19:25 26° NE 18:22:56 51° NNW 18:29:12 10° W
Landsat 5 3.2 18:25:10 76° NNE 18:25:28 87° ESE 18:29:24 10° SSW
ARGOS 3.3 18:22:06 10° S 18:27:30 74° WSW 18:32:55 10° NNW
GEOS 3 Rocket 3.9 18:30:35 47° NE 18:30:35 47° NE 18:35:18 10° NNW
Meteor 2-15 4.4 18:24:32 10° S 18:30:39 81° W 18:36:46 10° N
X-37B 3.1 18:28:57 10° SW 18:29:43 15° SSW 18:29:43 15° SSW
Cosmos 2333 Rocket 3.9 18:28:53 10° N 18:31:06 19° NNE 18:31:06 19° NNE
Okean O Rocket 2.1 18:29:17 10° S 18:33:40 59° W 18:38:06 10° NNW
Cosmos 44 Rocket 3.7 18:30:50 10° NW 18:35:40 61° WSW 18:38:15 26° SSE
Cosmos 2150 Rocket 4.0 18:33:39 10° NNW 18:38:51 77° WSW 18:44:04 10° SSE
Cosmos 1470 Rocket 4.2 18:34:29 10° NNW 18:38:52 56° W 18:43:14 10° S
Cosmos 1867 3.8 18:34:03 10° SSW 18:38:42 51° SE 18:38:42 51° SE
H-2A R/B 3.7 18:35:53 10° SSW 18:40:31 33° W 18:45:05 10° NNW
ISS -1.3 18:38:10 10° W 18:40:41 19° SW 18:41:23 18° SSW
USA 306 4.0 18:36:47 10° NW 18:39:36 35° NNW 18:39:36 35° NNW
USA 32 3.9 18:43:25 10° S 18:48:38 86° W 18:49:26 65° N
CZ-2C R/B 3.5 18:44:29 11° N 18:49:13 46° WNW 18:54:07 10° SW
Cosmos 2219 Rocket 4.2 18:45:12 10° N 18:46:30 15° N 18:46:30 15° N
Cosmos 1125 Rocket 3.8 18:45:41 10° NNW 18:50:53 66° WSW 18:54:41 19° S
ATLAS CENTAUR R/B 3.9 18:48:41 10° W 18:53:57 24° NNW 18:54:28 23° NNW
Meteor 1-27 Rocket 3.6 18:50:47 10° SSW 18:56:18 84° W 18:56:41 77° NNW
USA 234 4.3 18:50:31 10° SSE 18:56:39 42° SW 19:02:49 10° WNW
Cosmos 1241 Rocket 4.5 18:50:31 10° SSW 18:56:21 64° SE 18:56:21 64° SE
ATLAS 2AS CENTAUR R/B 4.2 18:52:53 10° NNW 18:58:02 23° NNE 18:58:02 23° NNE
NOSS 3-3 (A) 4.4 18:59:54 10° SSW 19:03:44 44° S 19:03:44 44° S
NOSS 3-3 (C) 4.4 19:00:01 10° SSW 19:03:48 43° S 19:03:48 43° S
Lacrosse 5 rocket 3.5 19:12:49 10° WNW 19:14:52 24° W 19:14:52 24° W
Cosmos 2360 Rocket 3.4 19:16:10 10° NNW 19:19:09 32° NNW 19:19:09 32° NNW
Cosmos 2322 Rocket 3.4 19:37:40 10° NW 19:42:10 38° W 19:42:10 38° W
SL-16 R/B 4.4 19:57:36 10° NW 20:01:45 21° W 20:03:05 20° WSW
